Regional Weather Roundup
Issued by NWS Pendleton, OR

Home | Current Version | Previous Version | Text Only | Print | Product List | Glossary On
Versions: 1 2 3 4 5 6 7 8 9 10 11 12 13 14 15 16 17 18 19 20 21 22 23 24 25 26 27 28 29 30 31 32 33 34 35 36 37 38 39 40 41 42 43 44 45 46 47 48 49 50
000
ASUS46 KPDT 241925
RWRPDT
PENDLETON REGIONAL WEATHER ROUNDUP
NATIONAL WEATHER SERVICE PENDLETON OREGON
1100 AM PST TUE JAN 24 2017

NOTE: FAIR INDICATES FEW OR NO CLOUDS BELOW 12,000 FEET WITH NO
SIGNIFICANT WEATHER AND/OR OBSTRUCTIONS TO VISIBILITY.

# INDICATES UNOFFICIAL STATION AND DATA

WAZ520-242010-
EAST SLOPES OF WASHINGTON CASCADES

CITY            SKY/WX      TMP DP  RH  WIND    PRES   REMARKS
#CLE ELUM HS    N/A         33  26  75  CALM    29.99R
#CLE ELUM LAKE  N/A         32  28  85  CALM    30.11R
#GLENWOOD       N/A         27  26  96  CALM    30.13S
#MANASTASH CYN  N/A         29  24  81  SW1     29.98R
#NELSON 3SW     N/A         24  23  96  CALM    30.36R
#NILE           N/A         25  23  92  W1      29.40S
#RONALD 2NW     N/A         26  N/A N/A CALM    29.88
#TROUT LAKE 1NE N/A         33  28  82  CALM    30.13R
#TROUT LAKE 1E  N/A         29  28  96  CALM    30.08R
$$

WAZ521-242010-
SIMCOE HIGHLANDS

CITY            SKY/WX      TMP DP  RH  WIND    PRES   REMARKS
#BICKLETON HS   N/A         33  22  63  SW3     29.62R
#CENTERVILLE 1SWN/A         27  25  92  CALM    30.11S
#GOLDENDALE 1NE N/A         27  26  96  CALM    N/A
#GOLDENDALE 4W  N/A         28  16  60  CALM    30.10R
#GOODNOE HILLS  N/A         31  27  85  W10     N/A
#LYLE 6NE       N/A         30  29  96  CALM    30.11R
#PITT 4SE       N/A         28  27  96  CALM    30.16S
$$

WAZ026-242010-
KITTITAS VALLEY

CITY            SKY/WX      TMP DP  RH  WIND    PRES   REMARKS
ELLENSBURG AP   FRZFOG      22  20  92  W3      30.06R VSB 1/4
#ELLENSBURG CWU N/A         22  21  96  CALM    30.11R
#ELLENSBURG 3NE N/A         21  20  96  CALM    28.14R
#KITTITAS 4N    N/A         25  23  92  CALM    30.07S
#KITTITAS 3S    N/A         22  21  96  CALM    30.16R
#THORP 6N       N/A         28  26  92  N6      30.16R
$$

WAZ027-242010-
YAKIMA VALLEY

CITY            SKY/WX      TMP DP  RH  WIND    PRES   REMARKS
SUNNYSIDE AP    CLOUDY      26  26  100 W3      30.12R FOG
YAKIMA AIRPORT  PTCLDY      26  24  92  W3      30.10S
YAKIMA-VAGABOND MOCLDY      23  23  100 CALM    30.06S FOG
#DONALD 2NE     N/A         25  17  71  NE3     28.95R
#MABTON         N/A         28  27  96  NW3     30.12R
#MOXEE 2E       N/A         26   0  32  CALM    30.07S
#NACHES 2SW     N/A         34  27  75  NW1     29.99S
#TERRACE HTS    N/A         24  23  96  CALM    30.13R
#TOPPENISH      N/A         25  24  96  N1      30.07R
#WEST VALLEY    N/A         22  21  96  CALM    30.15R
#W YAKIMA       N/A         23  22  96  CALM    30.16R
#WHITE SWAN 5E  N/A         23  22  96  CALM    30.17R
#WILEY CITY 3W  N/A         22  18  84  CALM    30.04R
$$

WAZ028-242010-
LOWER COLUMBIA BASIN...WASHINGTON

CITY            SKY/WX      TMP DP  RH  WIND    PRES   REMARKS
HANFORD         PTCLDY      31  27  85  NW3     30.11S
PASCO           CLOUDY      33  30  89  W6      30.13S
PROSSER AWOS    N/A         28  28  100 NW6     30.16R
RICHLAND AWOS   CLOUDY      33  30  89  SW8     30.14R
#BENTON CITY    N/A         29  27  92  W2      30.06R
#CONNELL 5N     N/A         31  29  92  CALM    30.13R
#CONNELL 5NW    N/A         30  29  96  S2      30.09S
#ELTOPIA 6NW    N/A         29  28  96  SW2     29.06R
#KAHLOTUS       N/A         31  30  96  W3      30.13R
#KENNEWICK 3S   N/A         31  29  92  SW5     30.15R
#PATERSON       N/A         32  30  92  CALM    30.14R
#SAGEMOOR 2W    N/A         29  27  92  SW6     29.98R
#TOUCHET 2S     N/A         34  31  89  NW1     30.12R
#WEST PASCO     N/A         33  30  89  NW1     30.12R
$$

WAZ029-242010-
FOOTHILLS OF THE BLUES...WASHINGTON

CITY            SKY/WX      TMP DP  RH  WIND    PRES   REMARKS
WALLA WALLA AP  LGT SNOW    30  29  96  W5      30.08R VSB 3/4
#CLYDE 6NW      N/A         30  29  96  CALM    30.13R
#DAYTON SCHOOL  N/A         31  26  81  CALM    30.08R
#LOWDEN 2SE     N/A         33  32  96  CALM    30.08S
#PLEASANT VIEW 1N/A         29  28  96  CALM    30.18R
#PRESCOTT       N/A         32  31  96  CALM    30.13R
#WHITMAN COLLEGEN/A         31  30  96  SW2     30.19R
#WAITSBURG 5S   N/A         30  29  96  CALM    30.23R
#WAITSBURG 8N   N/A         31  N/A N/A S3      29.91R
#WALLA WALLA 5E N/A         32  31  96  CALM    N/A
#WHITMAN MISSIONN/A         32  31  96  CALM    30.15R
$$

WAZ030-242010-
BLUE MOUNTAINS...WASHINGTON

CITY            SKY/WX      TMP DP  RH  WIND    PRES   REMARKS
#DIXIE 5SE      N/A         25  24  96  W3      29.91R
#SKI BLUEWOOD   N/A         26  23  88  CALM    29.89
$$

ORZ009-041-WAZ024-242010-
COLUMBIA RIVER GORGE

CITY            SKY/WX      TMP DP  RH  WIND    PRES   REMARKS
HOOD RIVER AP   CLOUDY      36  32  85  CALM    30.13R
THE DALLES AP   CLOUDY      34  31  89  NE3     30.15R
#ARLINGTON AIRPON/A         30  29  96  W9      30.15R
#ARLINGTON HS   N/A         33  28  82  CALM    30.05R
#CELILO DOT     N/A         35  26  69  CALM    N/A
#LYLE           N/A         35  33  92  S5      30.16R
#MOSIER 1S      N/A         35  30  82  CALM    30.09S
#MURDOCK        N/A         34  31  89  E2      30.13R
#RUFUS DOT      N/A         34  30  85  NW3     N/A
#SMITHVILLE     N/A         33  31  92  N5      30.12R

$$

ORZ510-242010-
NORTH CENTRAL OREGON

CITY            SKY/WX      TMP DP  RH  WIND    PRES   REMARKS
#ANTELOPE       N/A         26  25  96  CALM    30.05R
#CHENOWITH 1W   N/A         30  30  100 W3      N/A
#COW CYN RST AREN/A         25  N/A N/A S2      N/A
#DUFUR 9E       N/A         26  25  96  CALM    30.21R
#GRASS VALLEY 1SN/A         31  30  96  SW5     29.98R
#KENT DOT       N/A         30  26  85  N3      N/A
#MAUPIN SCHOOL  N/A         32  25  75  W2      30.14S
#SHANIKO 5WSW   N/A         26  22  85  N6      N/A
#SHANIKO 4NW    N/A         25  24  96  S2      29.98R
#TYGH VALLEY 2NEN/A         29  26  88  S1      30.14S
#WAPANITIA AIRPON/A         29  27  92  NW1     30.16S
#WASCO DOT      N/A         N/A N/A N/A W3      N/A
#WASCO 5NE      N/A         28  26  92  CALM    30.14R
$$

ORZ511-242010-
CENTRAL OREGON

CITY            SKY/WX      TMP DP  RH  WIND    PRES   REMARKS
BEND AIRPORT    SUNNY       30  19  63  CALM    30.02S
MADRAS AIRPORT  CLOUDY      27  27  100 MISG    30.08R FOG
PRINEVILLE AP   CLOUDY      27  25  92  CALM    30.04R
REDMOND AIRPORT SUNNY       27  20  74  SE5     30.03S
#ASHWOOD SCHOOL N/A         29  24  81  CALM    30.01S
#BEND 1SW       N/A         26  22  85  SW2     N/A
#BEND-AWBREY    N/A         30  24  78  S7      30.17R
#BEND-KIM LN    N/A         27  21  78  CALM    30.14R
#CULVER         N/A         28  26  92  CALM    30.09R
#CULVER 8W      N/A         31  21  66  CALM    30.04R
#LAKE BILLY CHINN/A         29  N/A N/A CALM    30.17
#MADRAS 4S      N/A         31  10  41  NW3     30.13R
#POWELL BUTTE   N/A         30  23  75  W1      29.97S
#PRINEVILLE 3N  N/A         30  25  81  CALM    30.16S
#WARM SPRINGS   N/A         29  25  85  CALM    30.08R

$$


ORZ509-242010-
EAST SLOPES OF OREGON CASCADES

CITY            SKY/WX      TMP DP  RH  WIND    PRES   REMARKS
SISTERS AWOS    N/A         30  21  69  CALM    29.98S
#BLUE BOX PASS  N/A         29  N/A N/A NW2     N/A
#CAMP SHERMAN   N/A         23  18  81  CALM    30.26S
#LA PINE 4NW    N/A         19  16  88  CALM    30.26S
#LAVA BUTTE DOT N/A         25  23  92  S1      N/A
#SISTERS ODOT   N/A         28  N/A N/A CALM    N/A
#SISTERS 3N     N/A         32  20  61  E2      30.02S
#SUNRIVER       N/A         23  21  92  S2      30.23R
#TUMALO 3W      N/A         34  21  58  CALM    30.01S
#WANOGA BUTTE D N/A         32  14  47  CALM    N/A

$$

ORZ044-242010-
LOWER COLUMBIA BASIN...OREGON

CITY            SKY/WX      TMP DP  RH  WIND    PRES   REMARKS
HERMISTON       CLOUDY      33  31  92  W5      30.11R FOG
#BOARDMAN SCHOOLN/A         34  31  89  SW3     30.13R
#ECHO 8SW       N/A         33  33  100 W1      30.13R
#I-84 EX 198 DOTN/A         29  29  100 N2      N/A
#UMATILLA       N/A         34  29  82  SW2     30.09R
$$

ORZ507-242010-
NORTHERN FOOTHILLS OF THE BLUES

CITY            SKY/WX      TMP DP  RH  WIND    PRES   REMARKS
PENDLETON AIRPT FRZFOG      29  29  100 CALM    30.06S VSB 1/4
#ADAMS 3WNW     N/A         29  27  92  SW1     30.12F
#ATHENA         N/A         29  28  96  SW1     30.16S
#CAYUSE         N/A         30  29  96  W1      30.13S
#HELIX 3N       N/A         28  27  96  N3      30.01S
#HOLDMAN 5SE    N/A         30  29  96  CALM    29.80S
#HOLDMAN 6E     N/A         28  27  96  CALM    29.94R
#M-F GROVE ELEM N/A         32  30  92  CALM    30.06R
#PENDLETON DNTN N/A         32  29  89  CALM    30.07S
#PDT AQUATIC CTRN/A         30  30  100 CALM    30.07S
#PDT SUNRIDGE   N/A         30  29  96  CALM    30.09S
#PENDLETON 7NW  N/A         30  27  88  CALM    32.00S
#PILOT ROCK     N/A         31  28  88  CALM    30.07S
#TUTUILLA       N/A         30  28  92  CALM    30.12S
#UMAPINE 2E     N/A         32  31  96  CALM    30.08R
#WESTON SCHOOL  N/A         29  26  88  NW7     29.94S

$$

ORZ508-242010-
SOUTHERN FOOTHILLS OF THE BLUES

CITY            SKY/WX      TMP DP  RH  WIND    PRES   REMARKS
#AJAX           N/A         30  23  75  S6      27.80R
#CONDON SCHOOL  N/A         28  27  96  SW1     29.97R
#FOSSIL SCHOOL  N/A         34  28  78  CALM    29.97R
#HEPPNER EOC    N/A         38  31  76  CALM    30.06S
#HEPPNER 4NE    N/A         33  30  89  SW3     30.13R
#LEXINGTON 2SE  N/A         37  32  82  NW3     30.03R
#MIKKALO        N/A         30  28  92  SE1     30.17R
#OLEX 4N        N/A         30  29  96  W8      30.07R
#RUGGS 5NE      N/A         36  29  75  SW3     30.17R
#RUGGS 2SW      N/A         36  29  75  W7      30.15R

$$

ORZ502-503-242010-
BLUE MOUNTAINS

CITY            SKY/WX      TMP DP  RH  WIND    PRES   REMARKS
MEACHAM         CLOUDY      28  24  85  W5      29.96R
#BATTLE MTN DOT N/A         29  27  92  NW8     N/A
#GREENHORN 9SW  N/A         28  26  92  N1      26.16R
#HEPPNER 15SE   N/A         34  26  72  CALM    25.48S
#LADD CYN SMT   N/A         27  24  88  NW8     N/A
#LADD CREEK ODOTN/A         27  24  88  NE5     N/A
#LONG CREEK HS  N/A         29  29  100 CALM    N/A
#N POWDER DOT   N/A         29  24  81  NE8     N/A
#PIKES PEAK     N/A         25  23  92  CALM    27.99S
#TOLLGATE       N/A         21  20  96  SW1     29.78R
#TROY SCHOOL    N/A         30  25  81  CALM    30.00R
#UKIAH          N/A         27  25  92  CALM    30.07R
#WESTON 4E      N/A         27  26  96  S2      30.11S
$$

ORZ505-242010-
JOHN DAY BASIN

CITY            SKY/WX      TMP DP  RH  WIND    PRES   REMARKS
JOHN DAY        CLOUDY      30  25  81  W7      29.98S
#ANTELOPE 9ESE  N/A         34  28  78  CALM    N/A
#DAYVILLE SCHOOLN/A         30  23  75  VRB2    30.01S
#MITCHELL       N/A         33  28  82  CALM    30.18F
#MITCHELL 8NW   N/A         30  26  85  CALM    29.97R
#MONUMENT HS    N/A         29  22  75  CALM    30.02R
#MT. VERNON 5SE N/A         28  24  85  CALM    29.92S
#SPRAY SCHOOL   N/A         33  N/A N/A CALM    N/A
$$

ORZ506-242010-
OCHOCO AND JOHN DAY HIGHLANDS

CITY            SKY/WX      TMP DP  RH  WIND    PRES   REMARKS
#HORSE RIDGE DO N/A         19  10  67  CALM    N/A
#KEYES SMT DOT  N/A         40  33  76  W9      N/A
#PAULINA SCHOOL N/A         17  15  92  NE3     N/A
#PINE MTN OBS   N/A         21  20  96  CALM    N/A
#SENECA         N/A         28  N/A N/A N5      N/A
#SENECA 9NW     N/A         30  24  78  N1      30.09S
$$

ORZ049-242010-
GRANDE RONDE VALLEY

CITY            SKY/WX      TMP DP  RH  WIND    PRES   REMARKS
LA GRANDE       MOCLDY      28  23  81  N8      29.99R
#COVE           N/A         28  24  85  CALM    30.02R
#COVE 6NW       N/A         26  23  88  N6      30.14R
#ELGIN 3N       N/A         23  16  74  CALM    29.98R
#ELGIN 1E       N/A         23  19  84  CALM    N/A
#IMBLER SCHOOL  N/A         24  21  88  CALM    29.97R
#ISLAND CITY 4N N/A         36  35  96  CALM    30.18R
#LADD CYN DOT   N/A         29  27  92  N2      N/A
#UNION 1S       N/A         30  26  85  N1      30.13R
$$

ORZ050-242010-
WALLOWA COUNTY

CITY            SKY/WX      TMP DP  RH  WIND    PRES   REMARKS
#IMNAHA SCHOOL  N/A         34  29  82  CALM    30.02S
#IMNAHA 10S     N/A         30  26  85  CALM    29.98R
#JOSEPH 3N      N/A         23  17  77  CALM    29.98R
#JOSEPH 3W      N/A         31  21  66  CALM    29.77S
#LOSTINE        N/A         22  17  81  CALM    30.00R
#LOSTINE 3SE    N/A         26  22  85  SE2     30.01R
#MT HOWARD 8000 N/A         13  N/A N/A CALM    29.70R
#PROMISE 1S     N/A         24  22  92  CALM    30.24R
#WALLOWA SCHOOL N/A         19  15  84  CALM    29.97S



$$



USA.gov is the U.S. government's official web portal to all federal, state and local government web resources and services.